IW3HBX-13 Weather Reports


Display with metric or nautical units.
time (UTC)temp
F
wind
direction
speed
MPH
gust
MPH
rain 1hr
in
rain 24hr
in
rain mn
in
humidity
%
barometer
mb
20260901211209 74 84 0.0 0.0 0.00 0.00 0.00 76 1018.5
20260901210607 75 84 0.0 0.0 0.00 0.00 0.00 75 1018.5
20260901205408 75 84 0.0 0.0 0.00 0.00 0.00 72 1018.6
20260901204809 75 84 0.0 0.0 0.00 0.00 0.00 75 1018.7
20260901204207 76 84 0.0 0.0 0.00 0.00 0.00 72 1018.6
20260901203607 76 84 0.0 0.0 0.00 0.00 0.00 70 1018.6
20260901203010 76 84 0.0 0.0 0.00 0.00 0.00 70 1018.6
20260901202410 76 84 0.0 0.0 0.00 0.00 0.00 69 1018.5
20260901201815 76 84 0.0 0.0 0.00 0.00 0.00 71 1018.5
20260901201207 76 84 0.0 0.0 0.00 0.00 0.00 70 1018.5
20260901200607 77 84 0.0 0.0 0.00 0.00 0.00 70 1018.4
20260901195409 77 84 0.0 0.0 0.00 0.00 0.00 70 1018.3
20260901194807 77 84 0.0 0.0 0.00 0.00 0.00 67 1018.3
20260901194208 77 84 0.0 0.0 0.00 0.00 0.00 67 1018.4
20260901193616 77 84 0.0 0.0 0.00 0.00 0.00 69 1018.2
20260901193007 77 84 0.0 0.0 0.00 0.00 0.00 67 1018.3
20260901192410 77 84 0.0 0.0 0.00 0.00 0.00 65 1018.2
20260901191808 77 84 0.0 0.0 0.00 0.00 0.00 65 1018.2
20260901191213 77 84 0.0 0.0 0.00 0.00 0.00 65 1018.1
20260901190608 78 90 1.0 2.0 0.00 0.00 0.00 63 1018.1
20260901185407 78 90 0.0 0.0 0.00 0.00 0.00 61 1017.9
20260901184809 78 90 0.0 0.0 0.00 0.00 0.00 60 1017.9
20260901184207 78 90 0.0 0.0 0.00 0.00 0.00 59 1017.9
20260901183609 78 90 0.0 0.0 0.00 0.00 0.00 58 1017.8
20260901183009 79 90 0.0 0.0 0.00 0.00 0.00 57 1017.8
20260901182409 79 90 0.0 0.0 0.00 0.00 0.00 60 1017.8
20260901181814 80 90 0.0 0.0 0.00 0.00 0.00 58 1017.8
20260901181216 80 90 0.0 0.0 0.00 0.00 0.00 54 1017.7
20260901180607 80 90 0.0 0.0 0.00 0.00 0.00 54 1017.7
20260901175411 82 90 0.0 0.0 0.00 0.00 0.00 51 1017.6
20260901174808 82 90 0.0 0.0 0.00 0.00 0.00 48 1017.5
20260901174207 83 90 0.0 0.0 0.00 0.00 0.00 45 1017.4
20260901173610 84 90 1.0 1.0 0.00 0.00 0.00 44 1017.4
20260901172413 84 74 1.0 2.0 0.00 0.00 0.00 42 1017.4
20260901171810 85 74 0.0 0.0 0.00 0.00 0.00 41 1017.4
20260901171210 86 74 0.0 0.0 0.00 0.00 0.00 40 1017.4
20260901170609 86 66 0.0 1.0 0.00 0.00 0.00 40 1017.5
20260901165410 86 79 1.0 2.0 0.00 0.00 0.00 40 1017.5
20260901164809 85 105 1.0 2.0 0.00 0.00 0.00 41 1017.6
20260901164207 85 79 2.0 2.0 0.00 0.00 0.00 40 1017.6
20260901163607 85 96 1.0 5.0 0.00 0.00 0.00 41 1017.6
20260901162407 86 60 2.0 4.0 0.00 0.00 0.00 40 1017.5
20260901161808 85 89 2.0 4.0 0.00 0.00 0.00 40 1017.7
20260901161207 85 96 2.0 4.0 0.00 0.00 0.00 40 1017.7
20260901160608 84 72 2.0 2.0 0.00 0.00 0.00 39 1017.7
20260901155409 86 86 1.0 4.0 0.00 0.00 0.00 39 1017.7
20260901154807 85 136 2.0 3.0 0.00 0.00 0.00 38 1017.8
20260901154208 85 100 2.0 3.0 0.00 0.00 0.00 38 1017.8
20260901152409 86 92 2.0 4.0 0.00 0.00 0.00 39 1017.9
20260901151807 86 90 3.0 5.0 0.00 0.00 0.00 39 1017.9
20260901151207 86 77 2.0 3.0 0.00 0.00 0.00 38 1018.0
20260901150607 86 135 2.0 4.0 0.00 0.00 0.00 38 1017.9
20260901144809 86 95 2.0 3.0 0.00 0.00 0.00 39 1018.0
20260901144207 86 61 3.0 5.0 0.00 0.00 0.00 38 1018.1
20260901143607 86 90 1.0 3.0 0.00 0.00 0.00 39 1018.1
20260901142409 86 114 3.0 5.0 0.00 0.00 0.00 39 1018.2
20260901141807 86 107 2.0 4.0 0.00 0.00 0.00 39 1018.2
20260901141207 86 77 3.0 4.0 0.00 0.00 0.00 41 1018.1
20260901140607 86 113 3.0 4.0 0.00 0.00 0.00 40 1018.2
20260901135410 86 89 1.0 2.0 0.00 0.00 0.00 40 1018.3
20260901134809 85 57 4.0 6.0 0.00 0.00 0.00 42 1018.3
20260901134207 85 87 2.0 3.0 0.00 0.00 0.00 41 1018.3
20260901133607 86 106 3.0 6.0 0.00 0.00 0.00 41 1018.4
20260901133007 86 65 3.0 5.0 0.00 0.00 0.00 41 1018.5
20260901132407 86 65 2.0 3.0 0.00 0.00 0.00 42 1018.4
20260901131810 86 69 2.0 3.0 0.00 0.00 0.00 41 1018.5
20260901131208 86 68 2.0 4.0 0.00 0.00 0.00 42 1018.5
20260901130608 85 79 3.0 5.0 0.00 0.00 0.00 42 1018.5
20260901125407 84 71 3.0 5.0 0.00 0.00 0.00 43 1018.7
20260901124810 86 78 4.0 5.0 0.00 0.00 0.00 42 1018.7
20260901124210 85 66 3.0 7.0 0.00 0.00 0.00 43 1018.7
20260901123607 85 71 2.0 4.0 0.00 0.00 0.00 43 1018.7
20260901123007 85 94 3.0 5.0 0.00 0.00 0.00 43 1018.8
20260901122407 84 63 5.0 8.0 0.00 0.00 0.00 44 1019.0
20260901121809 84 62 5.0 9.0 0.00 0.00 0.00 43 1019.0
20260901121208 84 76 3.0 6.0 0.00 0.00 0.00 43 1018.9
20260901120610 84 65 3.0 5.0 0.00 0.00 0.00 45 1019.0
20260901115407 83 68 6.0 9.0 0.00 0.00 0.00 46 1019.1
20260901114808 83 49 2.0 3.0 0.00 0.00 0.00 46 1019.0
20260901114603 83 71 7.0 9.0 0.00 0.00 0.00 48 1019.1
20260901114210 83 71 7.0 9.0 0.00 0.00 0.00 48 1019.1
20260901113607 83 64 3.0 4.0 0.00 0.00 0.00 48 1019.1
20260901113007 84 72 2.0 3.0 0.00 0.00 0.00 46 1019.1
20260901112407 83 53 6.0 11.0 0.00 0.00 0.00 48 1019.2
20260901111808 84 55 4.0 6.0 0.00 0.00 0.00 46 1019.2
20260901111209 84 70 4.0 7.0 0.00 0.00 0.00 48 1019.2
20260901110607 83 74 1.0 2.0 0.00 0.00 0.00 46 1019.1
20260901105408 84 66 5.0 9.0 0.00 0.00 0.00 50 1019.2
20260901104807 84 86 4.0 6.0 0.00 0.00 0.00 50 1019.3
20260901104207 83 70 5.0 8.0 0.00 0.00 0.00 50 1019.4
20260901103607 83 69 2.0 3.0 0.00 0.00 0.00 52 1019.3
20260901103007 83 55 5.0 7.0 0.00 0.00 0.00 52 1019.3
20260901102407 83 70 5.0 7.0 0.00 0.00 0.00 52 1019.4
20260901101808 83 34 2.0 3.0 0.00 0.00 0.00 51 1019.4
20260901101207 82 59 3.0 7.0 0.00 0.00 0.00 52 1019.5
20260901100610 83 67 5.0 9.0 0.00 0.00 0.00 51 1019.6
20260901095407 82 65 3.0 5.0 0.00 0.00 0.00 53 1019.5
20260901095258 82 61 6.0 7.0 0.00 0.00 0.00 53 1019.6
20260901094809 82 61 6.0 7.0 0.00 0.00 0.00 53 1019.6
20260901094208 81 53 3.0 5.0 0.00 0.00 0.00 53 1019.6
20260901093608 81 65 4.0 6.0 0.00 0.00 0.00 51 1019.7
20260901093007 81 62 7.0 10.0 0.00 0.00 0.00 52 1019.7
20260901092407 81 68 5.0 8.0 0.00 0.00 0.00 52 1019.6
20260901091846 80 53 7.0 12.0 0.00 0.00 0.00 52 1019.7
20260901091807 80 53 7.0 12.0 0.00 0.00 0.00 52 1019.7
20260901091207 81 69 4.0 7.0 0.00 0.00 0.00 52 1019.6
20260901090607 81 66 6.0 9.0 0.00 0.00 0.00 53 1019.7
20260901085410 80 63 7.0 10.0 0.00 0.00 0.00 52 1019.6
20260901084810 80 61 8.0 10.0 0.00 0.00 0.00 53 1019.6
20260901084207 80 60 6.0 10.0 0.00 0.00 0.00 52 1019.5
20260901083608 80 60 7.0 10.0 0.00 0.00 0.00 52 1019.4
20260901083007 79 56 8.0 12.0 0.00 0.00 0.00 53 1019.4
20260901082407 79 61 4.0 8.0 0.00 0.00 0.00 54 1019.3
20260901081807 79 61 5.0 9.0 0.00 0.00 0.00 53 1019.2
20260901081548 78 60 8.0 10.0 0.00 0.00 0.00 54 1019.1
20260901081207 78 55 5.0 11.0 0.00 0.00 0.00 54 1019.2
20260901080607 78 60 8.0 10.0 0.00 0.00 0.00 54 1019.1
20260901075408 78 65 7.0 11.0 0.00 0.00 0.00 54 1019.0
20260901074808 78 60 6.0 10.0 0.00 0.00 0.00 54 1019.0
20260901074207 78 59 6.0 12.0 0.00 0.00 0.00 54 1018.9
20260901073607 78 64 5.0 10.0 0.00 0.00 0.00 54 1018.8
20260901073007 78 47 5.0 8.0 0.00 0.00 0.00 54 1018.8
20260901072407 78 64 3.0 6.0 0.00 0.00 0.00 57 1018.7
20260901071807 77 59 7.0 10.0 0.00 0.00 0.00 58 1018.7
20260901071208 77 52 4.0 10.0 0.00 0.00 0.00 60 1018.7
20260901070610 77 30 3.0 5.0 0.00 0.00 0.00 64 1018.7
20260901065409 74 46 2.0 4.0 0.00 0.00 0.00 69 1018.6
20260901064810 75 46 2.0 5.0 0.00 0.00 0.00 69 1018.7
20260901064207 74 72 0.0 2.0 0.00 0.00 0.00 67 1018.6
20260901063610 74 65 1.0 3.0 0.00 0.00 0.00 70 1018.5
20260901063010 74 44 2.0 2.0 0.00 0.00 0.00 70 1018.6
20260901062410 74 48 1.0 2.0 0.00 0.00 0.00 70 1018.6
20260901061807 74 353 1.0 2.0 0.00 0.00 0.00 70 1018.5
20260901061207 74 6 1.0 2.0 0.00 0.00 0.00 69 1018.5
20260901060610 74 279 0.0 2.0 0.00 0.00 0.00 70 1018.4
20260901055407 74 58 0.0 1.0 0.00 0.00 0.00 67 1018.3
20260901054807 73 47 1.0 2.0 0.00 0.00 0.00 70 1018.2
20260901054207 73 72 1.0 2.0 0.00 0.00 0.00 70 1018.2
20260901053608 73 77 1.0 3.0 0.00 0.00 0.00 69 1018.3
20260901053007 73 52 2.0 4.0 0.00 0.00 0.00 69 1018.1
20260901052410 73 68 3.0 5.0 0.00 0.00 0.00 67 1018.1
20260901051807 73 36 2.0 2.0 0.00 0.00 0.00 69 1018.1
20260901051210 73 47 2.0 5.0 0.00 0.00 0.00 69 1018.0
20260901050608 72 62 2.0 4.0 0.00 0.00 0.00 69 1017.9
20260901045407 72 65 0.0 1.0 0.00 0.00 0.00 70 1017.7
20260901044807 72 60 0.0 2.0 0.00 0.00 0.00 70 1017.6
20260901044207 71 60 2.0 4.0 0.00 0.00 0.00 70 1017.5
20260901043609 71 287 2.0 4.0 0.00 0.00 0.00 71 1017.6
20260901043007 71 331 2.0 2.0 0.00 0.00 0.00 72 1017.4
20260901042409 71 357 1.0 2.0 0.00 0.00 0.00 71 1017.5
20260901041807 71 354 1.0 2.0 0.00 0.00 0.00 71 1017.5
20260901041207 71 64 0.0 0.0 0.00 0.00 0.00 72 1017.4
20260901040607 71 64 0.0 2.0 0.00 0.00 0.00 70 1017.3
20260901035410 71 64 0.0 2.0 0.00 0.00 0.00 72 1017.3
20260901034808 71 62 0.0 1.0 0.00 0.00 0.00 72 1017.2
20260901034207 71 61 0.0 0.0 0.00 0.00 0.00 71 1017.0
20260901033609 71 62 0.0 0.0 0.00 0.00 0.00 71 1017.0
20260901033009 71 62 0.0 0.0 0.00 0.00 0.00 72 1017.0
20260901032410 72 62 0.0 0.0 0.00 0.00 0.00 71 1016.9
20260901031808 71 62 0.0 0.0 0.00 0.00 0.00 71 1016.9
20260901031208 71 64 1.0 2.0 0.00 0.00 0.00 71 1016.9
20260901030607 71 65 0.0 1.0 0.00 0.00 0.00 71 1017.0
20260901025408 72 65 0.0 0.0 0.00 0.00 0.00 70 1017.0
20260901024809 72 65 0.0 1.0 0.00 0.00 0.00 70 1016.9
20260901024208 72 62 0.0 2.0 0.00 0.00 0.00 69 1017.0
20260901023607 72 62 0.0 2.0 0.00 0.00 0.00 67 1017.0
20260901023007 73 62 2.0 3.0 0.00 0.00 0.00 66 1016.9
20260901022409 73 67 2.0 3.0 0.00 0.00 0.00 67 1017.0
20260901021810 73 65 1.0 2.0 0.00 0.00 0.00 66 1016.9
20260901021207 73 73 1.0 2.0 0.00 0.00 0.00 66 1016.9
20260901020607 73 60 2.0 4.0 0.00 0.00 0.00 65 1016.7
20260901015407 73 58 1.0 3.0 0.00 0.00 0.00 65 1016.8
20260901014808 74 64 3.0 5.0 0.00 0.00 0.00 64 1016.8
20260901014207 74 62 3.0 6.0 0.00 0.00 0.00 63 1016.8
20260901013607 74 65 4.0 6.0 0.00 0.00 0.00 63 1016.7
20260901013007 74 66 4.0 8.0 0.00 0.00 0.00 63 1016.7
20260901012410 74 64 3.0 5.0 0.00 0.00 0.00 63 1016.6
20260901011807 74 59 5.0 7.0 0.00 0.00 0.00 61 1016.8
20260901011207 74 55 4.0 6.0 0.00 0.00 0.00 61 1016.8
20260901010607 75 64 5.0 6.0 0.00 0.00 0.00 60 1016.8
20260901005407 75 66 5.0 8.0 0.00 0.00 0.00 60 1016.8
20260901004808 75 59 4.0 7.0 0.00 0.00 0.00 60 1016.7
20260901004207 76 64 5.0 7.0 0.00 0.00 0.00 61 1016.7
20260901003608 76 65 5.0 7.0 0.00 0.00 0.00 63 1016.6
20260901003007 76 67 5.0 11.0 0.00 0.00 0.00 66 1016.6
20260901002407 76 71 6.0 10.0 0.00 0.00 0.00 69 1016.7
20260901001808 77 67 4.0 6.0 0.00 0.00 0.00 73 1016.6
20260901001536 77 66 4.0 6.0 0.00 0.00 0.00 76 1016.6
20260901001207 77 66 4.0 6.0 0.00 0.00 0.00 76 1016.6
20260901000608 77 70 7.0 12.0 0.00 0.00 0.00 77 1016.6
20260831235407 77 67 7.0 10.0 0.00 0.00 0.00 83 1016.5
20260831235056 76 59 4.0 5.0 0.00 0.00 0.00 86 1016.2
20260831234810 77 63 4.0 7.0 0.00 0.00 0.00 85 1016.3
20260831234207 77 66 4.0 6.0 0.00 0.00 0.00 85 1016.2
20260831233609 76 59 4.0 5.0 0.00 0.00 0.00 86 1016.2
20260831233008 76 65 4.0 7.0 0.00 0.00 0.00 86 1016.1
20260831231807 76 55 3.0 4.0 0.00 0.00 0.00 87 1015.8
20260831231245 76 66 3.0 4.0 0.00 0.00 0.00 87 1015.8
20260831231208 76 66 3.0 4.0 0.00 0.00 0.00 87 1015.8
20260831230609 76 72 2.0 3.0 0.00 0.00 0.00 87 1015.8
20260831224810 76 57 3.0 5.0 0.00 0.00 0.00 87 1015.5
20260831224212 76 71 3.0 5.0 0.00 0.00 0.00 87 1015.2
20260831223607 76 69 4.0 5.0 0.00 0.00 0.00 87 1015.2
20260831223015 77 58 2.0 3.0 0.00 0.00 0.00 87 1015.2
20260831221810 76 70 3.0 4.0 0.00 0.00 0.00 86 1015.0
20260831221209 76 68 2.0 3.0 0.00 0.00 0.00 86 1015.0
20260831220608 77 60 3.0 5.0 0.00 0.00 0.00 86 1015.0
20260831214810 77 69 3.0 4.0 0.00 0.00 0.00 85 1015.0
20260831214207 77 69 3.0 3.0 0.00 0.00 0.00 85 1014.9
20260831213608 77 67 3.0 4.0 0.00 0.00 0.00 86 1014.9
20260831213012 77 71 2.0 2.0 0.00 0.00 0.00 85 1014.9
20260831212417 78 71 0.0 1.0 0.00 0.00 0.00 83 1014.8
20260831211821 78 71 0.0 1.0 0.00 0.00 0.00 83 1014.8